Location: Niverville
(49.6028°N, 97.0419°W)
Time: 14:05:16
(UTC-06:00)

Daily predictions for brighter satellites

Satellite Brightness Start Highest point End
(mag) Time Altitude Azimuth Time Altitude Azimuth Time Altitude Azimuth
Cosmos 1378 4.2 17:31:24 10° SSW 17:35:01 47° WNW 17:38:39 10° N
ALOS 4.1 17:34:31 10° ENE 17:35:09 10° NE 17:35:49 10° NE
COSMOS 2455 4.0 17:29:42 10° WSW 17:35:15 36° NW 17:40:49 10° NNE
Cosmos 2034 Rocket 4.1 17:29:02 10° N 17:35:26 85° E 17:41:49 10° S
IDEFIX/ARIANE 42P 2.6 17:32:21 10° SSE 17:37:33 79° ENE 17:42:49 10° NNW
Lacrosse 5 rocket 1.6 17:35:16 10° NW 17:38:49 41° NNE 17:42:30 10° E
Cosmos 841 Rocket 4.3 17:36:51 10° SSE 17:41:28 32° ESE 17:46:06 10° NE
MOS 1 4.3 17:39:21 10° SSE 17:45:01 80° ENE 17:50:43 10° NNW
CZ-4 R/B 1.4 17:41:55 10° SSE 17:45:47 84° WSW 17:49:43 10° NNW
SL-16 R/B 4.4 17:41:58 10° N 17:46:56 26° NW 17:51:55 10° WSW
Cosmos 1937 Rocket 3.9 17:42:09 10° NNW 17:47:19 70° WSW 17:52:30 10° SSE
Cosmos 468 Rocket 4.0 17:43:38 10° SSW 17:48:48 76° ESE 17:53:57 10° NNE
CENTAUR R/B 2.9 17:45:24 10° SSW 17:51:19 51° ESE 17:58:00 10° NE
Cosmos 2322 3.8 17:45:58 10° SSW 17:51:39 86° ESE 17:57:25 10° NNE
Lacrosse 4 Rocket 3.4 17:52:08 10° N 17:53:16 11° NNE 17:54:24 10° NE
In-Cosmos 22 4.2 17:48:43 10° SSW 17:54:05 87° W 17:59:39 10° NNE
Cosmos 1766 Rocket 3.5 17:50:13 10° S 17:54:40 77° E 17:59:07 10° NNE
Meteor 2-2 Rocket 4.2 17:49:42 10° N 17:55:19 63° ENE 18:00:54 10° SSE
SMAP 3.2 17:51:00 10° SSE 17:55:39 82° WSW 18:00:21 10° NNW
Cosmos 1844 Rocket 2.8 17:50:31 10° NNW 17:56:15 89° WSW 18:01:54 10° SSE
Resurs 01 Rocket 3.3 17:55:06 10° E 17:57:24 14° NE 17:59:41 10° NNE
SL-16 R/B 3.4 17:52:59 10° WSW 17:58:16 39° NW 18:03:35 10° NNE
CZ-3A R/B 2.9 17:52:38 10° WNW 17:59:18 67° NNE 18:03:56 10° ESE
Lacrosse 5 2.2 17:55:04 10° WSW 18:00:06 63° NNW 18:04:47 12° NE
COSMO-SKYMED 1 3.4 17:56:23 10° NNE 18:00:13 29° E 18:04:01 10° SSE
Cosmos 2228 Rocket 3.0 18:01:22 10° N 18:05:48 84° E 18:10:13 10° S
YAOGAN 1 2.8 18:01:37 10° S 18:05:57 74° WSW 18:10:17 10° NNW
Cosmos 2333 4.4 18:00:50 10° S 18:06:16 54° ESE 18:11:43 10° NE
CZ-2C R/B 3.1 18:01:22 10° S 18:06:18 61° W 18:11:06 10° NNW
Cosmos 2279 Rocket 4.4 18:03:41 10° N 18:09:32 41° ENE 18:15:21 10° SE
USA 116 3.3 18:10:05 10° NNE 18:13:27 81° WNW 18:16:35 10° SSW
Cosmos 2360 Rocket 2.7 18:08:54 10° SW 18:14:27 62° WNW 18:20:04 10° NNE
Cosmos 389 Rocket 4.0 18:11:38 10° NNW 18:15:04 41° W 18:18:25 10° SSW
Cosmos 1408 Rocket 4.0 18:11:01 10° SSW 18:15:26 66° WNW 18:19:52 10° N
SJ-6B 3.7 18:12:31 10° SE 18:16:04 29° ENE 18:19:39 10° N
Cosmos 1980 Rocket 4.4 18:12:38 10° WNW 18:16:10 17° NW 18:19:44 10° N
Meteor 1-21 Rocket 4.4 18:12:00 10° SSW 18:17:55 87° W 18:23:49 10° NNE
Cosmos 2058 3.8 18:19:22 10° SSE 18:22:50 26° E 18:24:55 18° NE
FENGYUN 3A 4.4 18:23:32 10° ESE 18:28:07 30° ENE 18:32:43 10° N
Cosmos 2333 Rocket 2.6 18:22:55 10° S 18:28:12 43° ESE 18:32:21 16° NE
Cosmos 1763 Rocket 3.4 18:23:57 10° SSW 18:29:11 88° ESE 18:34:23 10° NNE
Cosmos 2346 Rocket 4.4 18:24:16 10° S 18:30:32 76° E 18:36:47 10° NNE
Meteor 2-10 4.0 18:27:30 10° N 18:32:29 55° ENE 18:37:31 10° SSE
Cosmos 372 Rocket 3.9 18:27:35 10° NNW 18:32:41 66° ENE 18:37:45 10° SSE
ATLAS 5 CENTAUR R/B 3.8 18:29:33 10° NW 18:33:30 20° N 18:36:14 15° NE
Cosmos 1743 Rocket 3.7 18:33:03 10° SSW 18:37:31 79° W 18:42:03 10° N
Meteor 1-27 4.2 18:33:34 10° N 18:39:21 66° ENE 18:45:09 10° SSE
METEOR-M 4.1 18:35:09 10° SSE 18:40:25 61° ENE 18:45:43 10° N
Cosmos 2219 Rocket 2.2 18:35:54 10° SSW 18:41:28 67° ESE 18:46:00 16° NE
Cosmos 2278 Rocket 2.2 18:37:02 10° NNW 18:42:45 86° WSW 18:48:26 10° SSE
Cosmos 2322 Rocket 4.2 18:38:33 10° W 18:42:56 22° NW 18:47:20 10° N
BREEZE-M DEB (TANK) 3.1 18:42:06 10° SSW 18:43:55 19° SSE 18:43:55 19° SSE
Cosmos 1515 Rocket 4.3 18:41:02 10° NNW 18:45:26 55° W 18:49:47 10° S
Cosmos 1340 Rocket 3.4 18:41:54 10° SSE 18:45:23 32° E 18:45:23 32° E
SKYMED 2 3.5 18:44:08 10° NNE 18:48:31 86° ESE 18:52:52 10° SSW
Cosmos 2151 2.8 18:44:29 10° S 18:48:38 65° E 18:52:25 12° NNE
Cosmos 1455 4.5 18:45:20 10° NNE 18:45:39 12° NNE 18:45:39 12° NNE
Cosmos 540 Rocket 3.6 18:44:42 10° S 18:49:42 51° ESE 18:52:40 23° NE
Cosmos 332 Rocket 3.8 18:47:09 10° SSW 18:51:59 82° WNW 18:56:12 14° NNE
Cosmos 1943 Rocket 4.1 18:51:13 10° N 18:53:14 12° NNE 18:53:14 12° NNE
SL-14 R/B 3.1 18:50:13 10° S 18:54:07 73° E 18:57:03 18° NNE
Cosmos 1151 Rocket 3.5 18:50:37 10° NNW 18:54:51 62° W 18:59:04 10° S
Cosmos 1674 4.4 18:52:04 10° SW 18:55:35 34° WNW 18:59:08 10° N
USA 215 3.8 18:49:09 10° SE 18:55:36 60° SW 19:02:06 10° WNW
ATLAS 3B R/B 4.1 18:49:40 10° WNW 18:55:40 26° N 18:59:38 17° NE
Thor Agena Rocket 4.4 18:51:32 10° N 18:56:38 51° WNW 19:01:40 10° SW
Cosmos 1805 Rocket 4.0 18:52:48 10° SSE 18:56:56 39° E 18:57:08 38° E
Cosmos 1484 Rocket 4.5 18:55:32 10° SSW 18:59:09 36° W 19:02:52 10° NNW
DMSP B5D1-3 4.4 18:56:31 10° NNE 19:01:39 80° ESE 19:06:45 10° SSW
Cosmos 1125 Rocket 4.3 18:57:40 10° NNW 19:02:45 53° WSW 19:07:47 10° S
Timation 1 Rocket 4.2 18:56:59 10° NNW 19:03:02 80° ENE 19:09:04 10° SSE
Cosmos 1500 Rocket 4.1 19:00:15 10° SSW 19:04:31 58° WNW 19:08:51 10° N
BREEZE M DEB (TANK) 3.2 19:03:05 10° W 19:05:24 24° SSW 19:05:47 23° SSW
Cosmos 1300 3.8 19:03:49 10° NNW 19:07:30 45° W 19:11:09 10° SSW
NOAA 12 4.2 19:02:19 10° S 19:07:34 77° WSW 19:12:51 10° NNW
CZ-4C R/B 3.9 19:02:32 10° NW 19:07:38 25° N 19:09:59 21° NE
COSMOS 2428 3.4 19:03:28 10° SW 19:09:02 51° NW 19:13:57 13° NNE
Cosmos 1726 3.5 19:05:39 10° NNW 19:09:12 41° W 19:12:45 10° SSW
ALOS 2.2 19:07:04 10° SSE 19:11:40 61° ENE 19:16:18 10° N
Cosmos 2237 Rocket 2.1 19:06:36 10° SSW 19:12:11 71° ESE 19:14:53 32° NE
Cosmos 2369 Rocket 3.6 19:09:25 10° N 19:13:02 22° NNE 19:13:02 22° NNE
Cosmos 44 3.4 19:09:00 10° SSW 19:14:08 60° ESE 19:15:09 49° ENE
SL-16 R/B 2.8 19:11:51 10° S 19:16:18 35° ESE 19:16:18 35° ESE
Spot 2 Rocket 3.4 19:12:11 10° SSE 19:17:11 66° ENE 19:22:12 10° N
Lacrosse 5 rocket 2.0 19:14:26 10° WNW 19:18:05 48° SW 19:19:24 33° S
Cosmos 2297 3.7 19:16:05 10° NNW 19:21:49 87° WSW 19:27:01 13° SSE
Cosmos 371 Rocket 3.7 19:17:40 10° SW 19:22:25 60° WNW 19:25:21 23° N
FREGAT/IRIS 4.3 19:25:11 30° NW 19:25:11 30° NW 19:27:01 10° NNW
NOSS 0 Rocket 3.9 19:23:10 10° SSW 19:29:24 82° WNW 19:32:50 29° NNE
Meteor 1-28 Rocket 4.3 19:29:53 22° NNW 19:31:50 42° WNW 19:35:21 10° SW
SL-19 R/B 4.4 19:26:52 10° SSE 19:32:46 76° WSW 19:38:25 10° NNW
Lacrosse 4 Rocket 2.9 19:29:10 10° NNW 19:31:06 25° N 19:31:06 25° N
Resurs 01 Rocket 1.5 19:31:55 46° SSE 19:33:13 90° WSW 19:37:42 10° NNW
Cosmos 2084 3.6 19:31:27 10° SW 19:34:44 60° WSW 19:34:44 60° WSW
COSMO-SKYMED 1 4.2 19:32:28 10° N 19:36:25 34° WNW 19:40:19 10° SW
Aureole 2 Rocket 3.9 19:36:18 10° SSW 19:38:34 36° SSW 19:38:34 36° SSW
Cosmos 1707 Rocket 3.9 19:36:29 10° NNW 19:40:47 64° W 19:45:03 10° S
CENTAUR R/B 3.3 19:35:52 10° WSW 19:42:04 50° NW 19:45:39 28° NNE
Cosmos 44 Rocket 3.7 19:37:08 10° SW 19:42:13 63° NW 19:43:11 51° N
Lacrosse 5 2.8 19:39:06 10° WNW 19:43:47 36° N 19:43:59 36° N
Resurs 1-3 4.3 19:46:40 47° NNW 19:46:40 47° NNW 19:49:50 10° NNW
Cosmos 2360 Rocket 4.5 19:56:05 10° WNW 19:59:40 17° NW 20:03:01 11° N
Cosmos 1980 4.3 19:54:10 10° SW 19:59:43 53° NW 20:01:38 37° N
FENGYUN 3A 4.4 20:02:57 10° S 20:08:08 49° W 20:13:23 10° NNW
Cosmos 2333 Rocket 3.3 20:07:15 10° WSW 20:12:32 39° NW 20:14:23 31° N
ATLAS 5 CENTAUR R/B 3.7 20:14:44 10° NW 20:17:48 26° N 20:17:48 26° N
Nadezhda 4 Rocket 4.4 20:14:10 10° SSW 20:20:21 62° WNW 20:26:39 10° N
Cosmos 2219 Rocket 3.9 20:21:07 10° WSW 20:25:55 28° NW 20:27:46 23° NNW
Cosmos 1943 Rocket 4.3 20:33:36 10° NNW 20:34:46 16° NNW 20:34:46 16° NNW
ATLAS 3B R/B 4.1 20:42:21 10° NW 20:46:53 28° N 20:46:53 28° N
Cosmos 2237 Rocket 3.9 20:52:04 10° W 20:56:46 27° NW 20:56:46 27° NW
CZ-4C R/B 4.0 20:51:37 10° NW 20:55:11 30° NNW 20:55:11 30° NNW
Cosmos 2369 Rocket 4.2 20:52:57 10° NNW 20:54:50 22° NNW 20:54:50 22° NNW
SL-16 R/B 4.0 20:55:36 10° SW 20:58:16 26° WSW 20:58:16 26° WSW
CENTAUR R/B 4.4 21:28:41 10° WNW 21:32:50 26° NNW 21:32:50 26° NNW
